Weather History for Boone, IA

Change the Weather History Date:

Monday, November 19, 2012

  Actual Average Record
Temperature  
Mean Temperature 53 °F -  
Max Temperature 63 °F 47 °F 70 °F (1976)
Min Temperature 43 °F 25 °F 8 °F (1989)
Degree Days  
Heating Degree Days 12    
Growing Degree Days 3 (Base 50)    
Moisture  
Dew Point 42 °F    
Average Humidity 68    
Maximum Humidity 81    
Minimum Humidity 52    
Precipitation  
Precipitation 0.03 in - - ()
Sea Level Pressure  
Sea Level Pressure 30.06 in    
Wind  
Wind Speed 7 mph (South)    
Max Wind Speed 14 mph    
Max Gust Speed 20 mph    
Visibility 10 miles    
Events Rain    
Averages and records for this station are not official NWS values.
T = Trace of Precipitation, MM = Missing Value Source: NWS Daily Summary

Daily Weather History Graph

Daily Weather History Graph

Search for Another Location

Airport:

Trip Planner

Search our weather history database for the weather conditions in past years. The results will help you decide how hot, cold, wet, or windy it might be!

Date:

Astronomy

Nov. 19, 2012 Rise Set
Actual Time 7:10 AM CST 4:50 PM CST
Civil Twilight 6:40 AM CST 5:20 PM CST
Nautical Twilight 6:06 AM CST 5:55 PM CST
Astronomical Twilight 5:33 AM CST 6:28 PM CST
Moon 12:11 PM CST (11/19) 11:21 PM CST (11/19)
Length of Visible Light 10h 40m
Length of Day
9h 39m
Waxing Crescent, 41% of the Moon is Illuminated
Nov 19
Waxing Crescent
Nov 20
First Quarter
Nov 28
Full
Dec 6
Last Quarter
Dec 13
New

Hourly Weather History & Observations

Time (CST) Temp. Windchill Dew Point Humidity Pressure Visibility Wind Dir Wind Speed Gust Speed Precip Events Conditions
12:15 AM 51.1 °F - 41.7 °F 70% 30.15 in 10.0 mi SSE 8.1 mph - 0.01 in Rain Light Rain
12:35 AM 50.9 °F - 42.1 °F 72% 30.14 in 10.0 mi South 5.8 mph - 0.01 in Rain Light Rain
12:55 AM 51.1 °F - 41.9 °F 71% 30.14 in 10.0 mi South 3.5 mph - 0.02 in Rain Light Rain
1:15 AM 50.0 °F - 43.3 °F 78% 30.12 in 10.0 mi SE 6.9 mph - 0.01 in   Scattered Clouds
1:35 AM 49.3 °F - 43.7 °F 81% 30.11 in 10.0 mi ESE 6.9 mph - 0.01 in   Light Drizzle
1:55 AM 49.6 °F - 43.0 °F 78% 30.11 in 10.0 mi SE 8.1 mph - 0.01 in   Overcast
2:35 AM 50.2 °F - 42.1 °F 74% 30.10 in 10.0 mi SE 9.2 mph - N/A   Overcast
2:55 AM 50.0 °F - 41.9 °F 74% 30.10 in 10.0 mi SE 9.2 mph - N/A   Overcast
3:15 AM 50.0 °F - 41.4 °F 72% 30.10 in 10.0 mi SE 10.4 mph - N/A   Overcast
3:35 AM 50.0 °F - 41.2 °F 72% 30.09 in 10.0 mi SE 9.2 mph - N/A   Overcast
3:55 AM 49.5 °F - 41.5 °F 74% 30.08 in 10.0 mi SE 8.1 mph - N/A   Overcast
4:15 AM 49.3 °F - 41.5 °F 75% 30.09 in 10.0 mi SE 8.1 mph - N/A   Overcast
4:35 AM 48.2 °F - 41.9 °F 79% 30.09 in 10.0 mi SE 8.1 mph - N/A   Overcast
4:55 AM 47.3 °F - 41.0 °F 79% 30.08 in 10.0 mi SE 8.1 mph - N/A   Mostly Cloudy
5:15 AM 46.4 °F 42.4 °F 39.6 °F 77% 30.08 in 10.0 mi SE 8.1 mph - N/A   Clear
5:35 AM 45.7 °F 41.5 °F 38.8 °F 77% 30.08 in 10.0 mi SE 8.1 mph - N/A   Clear
5:55 AM 44.8 °F 39.9 °F 38.5 °F 79% 30.08 in 10.0 mi SE 9.2 mph - N/A   Clear
6:15 AM 44.6 °F 39.7 °F 38.1 °F 78% 30.07 in 10.0 mi SE 9.2 mph - N/A   Clear
6:35 AM 43.9 °F 39.3 °F 37.8 °F 79% 30.07 in 10.0 mi SE 8.1 mph - N/A   Clear
6:55 AM 43.9 °F 39.3 °F 37.6 °F 78% 30.07 in 10.0 mi SE 8.1 mph - N/A   Clear
7:15 AM 43.3 °F 39.9 °F 37.4 °F 80% 30.07 in 10.0 mi SSE 5.8 mph - N/A   Clear
7:35 AM 43.2 °F 39.0 °F 37.4 °F 80% 30.07 in 10.0 mi SSE 6.9 mph - N/A   Clear
7:55 AM 44.6 °F 41.4 °F 37.9 °F 77% 30.07 in 10.0 mi SE 5.8 mph - N/A   Clear
8:15 AM 46.0 °F 42.5 °F 39.0 °F 76% 30.08 in 10.0 mi SSE 6.9 mph - N/A   Clear
8:35 AM 47.8 °F - 39.9 °F 74% 30.07 in 10.0 mi SSE 6.9 mph - N/A   Clear
8:55 AM 50.2 °F - 40.5 °F 69% 30.07 in 10.0 mi South 10.4 mph - N/A   Clear
9:15 AM 52.0 °F - 41.4 °F 67% 30.07 in 10.0 mi South 11.5 mph - N/A   Clear
9:35 AM 53.6 °F - 41.4 °F 63% 30.07 in 10.0 mi South 12.7 mph 17.3 mph N/A   Clear
9:55 AM 54.5 °F - 41.9 °F 62% 30.07 in 10.0 mi South 12.7 mph 19.6 mph N/A   Clear
10:15 AM 55.4 °F - 42.8 °F 63% 30.07 in 10.0 mi South 11.5 mph 17.3 mph N/A   Clear
10:35 AM 56.3 °F - 43.7 °F 63% 30.07 in 10.0 mi South 11.5 mph 17.3 mph N/A   Clear
10:55 AM 57.4 °F - 44.4 °F 62% 30.06 in 10.0 mi SW 13.8 mph 17.3 mph N/A   Clear
11:15 AM 57.7 °F - 44.6 °F 62% 30.06 in 10.0 mi SSW 9.2 mph - N/A   Clear
11:35 AM 58.6 °F - 45.3 °F 61% 30.05 in 10.0 mi South 11.5 mph - N/A   Clear
12:15 PM 60.3 °F - 45.9 °F 59% 30.04 in 10.0 mi SSW 9.2 mph - N/A   Clear
12:35 PM 60.6 °F - 45.5 °F 57% 30.04 in 10.0 mi SW 9.2 mph - N/A   Scattered Clouds
12:55 PM 61.5 °F - 46.2 °F 57% 30.03 in 10.0 mi South 8.1 mph - N/A   Clear
1:15 PM 62.1 °F - 45.9 °F 55% 30.03 in 10.0 mi South 10.4 mph 16.1 mph N/A   Clear
1:35 PM 62.6 °F - 45.7 °F 54% 30.03 in 10.0 mi South 9.2 mph - N/A   Clear
1:55 PM 62.8 °F - 45.1 °F 53% 30.03 in 10.0 mi SSW 8.1 mph - N/A   Clear
2:15 PM 63.1 °F - 45.1 °F 52% 30.02 in 10.0 mi SSW 9.2 mph - N/A   Clear
2:35 PM 63.0 °F - 45.0 °F 52% 30.02 in 10.0 mi SSW 8.1 mph - N/A   Clear
2:55 PM 63.3 °F - 45.3 °F 52% 30.02 in 10.0 mi SW 5.8 mph - N/A   Clear
3:15 PM 62.6 °F - 45.0 °F 52% 30.03 in 10.0 mi SW 5.8 mph - N/A   Clear
3:35 PM 62.6 °F - 45.0 °F 52% 30.03 in 10.0 mi SSW 9.2 mph - N/A   Clear
3:55 PM 62.6 °F - 45.5 °F 54% 30.03 in 10.0 mi SSW 5.8 mph - N/A   Clear
4:15 PM 61.5 °F - 45.5 °F 56% 30.03 in 10.0 mi SW 9.2 mph - N/A   Clear
4:55 PM 59.2 °F - 45.0 °F 59% 30.03 in 10.0 mi SSW 3.5 mph - N/A   Clear
5:15 PM 58.8 °F - 45.0 °F 60% 30.03 in 10.0 mi South 3.5 mph - N/A   Clear
5:35 PM 57.9 °F - 45.0 °F 62% 30.03 in 10.0 mi South 4.6 mph - N/A   Clear
5:55 PM 56.3 °F - 44.1 °F 64% 30.04 in 10.0 mi Calm Calm - N/A   Clear
6:15 PM 50.2 °F - 42.8 °F 76% 30.05 in 10.0 mi Calm Calm - N/A   Clear
6:35 PM 50.7 °F - 42.8 °F 74% 30.05 in 10.0 mi Calm Calm - N/A   Clear
6:55 PM 49.5 °F - 43.0 °F 78% 30.05 in 10.0 mi Calm Calm - N/A   Clear
7:15 PM 53.6 °F - 45.3 °F 74% 30.05 in 10.0 mi SW 4.6 mph - N/A   Clear
7:35 PM 52.0 °F - 43.9 °F 74% 30.06 in 10.0 mi West 5.8 mph - N/A   Clear
7:55 PM 52.7 °F - 42.8 °F 69% 30.06 in 10.0 mi West 8.1 mph - N/A   Clear
8:15 PM 52.3 °F - 41.2 °F 66% 30.06 in 10.0 mi WNW 9.2 mph - N/A   Clear
8:35 PM 51.6 °F - 40.3 °F 65% 30.06 in 10.0 mi WNW 6.9 mph - N/A   Clear
8:55 PM 50.5 °F - 39.4 °F 66% 30.06 in 10.0 mi WNW 4.6 mph - N/A   Clear
9:15 PM 48.9 °F - 39.2 °F 69% 30.06 in 10.0 mi WNW 4.6 mph - N/A   Clear
9:35 PM 48.7 °F - 38.7 °F 68% 30.06 in 10.0 mi NW 4.6 mph - N/A   Clear
9:55 PM 48.2 °F - 38.3 °F 69% 30.06 in 10.0 mi NW 4.6 mph - N/A   Clear
10:15 PM 47.3 °F - 38.5 °F 71% 30.06 in 10.0 mi West 5.8 mph - N/A   Clear
10:35 PM 46.4 °F 43.5 °F 38.3 °F 73% 30.06 in 10.0 mi West 5.8 mph - N/A   Clear
10:55 PM 45.5 °F 42.5 °F 37.8 °F 74% 30.06 in 10.0 mi West 5.8 mph - N/A   Clear
11:15 PM 44.8 °F 42.4 °F 37.6 °F 76% 30.05 in 10.0 mi West 4.6 mph - N/A   Clear
11:35 PM 45.0 °F 42.6 °F 37.4 °F 75% 30.05 in 10.0 mi West 4.6 mph - N/A   Clear
11:55 PM 44.4 °F 40.5 °F 37.4 °F 76% 30.06 in 10.0 mi West 6.9 mph - N/A   Clear